[[{"header":{"parameterUnit":"m.s-1","parameterCategory":1,"la1":30.2991,"la2":30.254,"lo1":-89.0895,"lo2":-89.0444,"dy":0.0017,"dx":0.0017,"nx":28,"ny":28,"refTime":"2023-08-09T09:00:00:Z","depth":0,"parameterNumber":2,"parameterNumberName":"U-component_of_WINDS"},"data":[0,0,0,0,0,0,0,0,0,0,0,0,0,0,0,0,0,0,0,0,0,0,0,0,0,0,0,0,0,0,0,0,0,0,0,0,0,0,0,0,0,0,0,0,0,0,0,0,0,0,0,0,0,0,0,0,0,0,5.3099,5.31,0,5.3177,5.3178,5.3179,5.3133,5.3131,5.3129,5.3126,5.3204,5.3208,5.3212,0,0,0,0,0,0,0,0,0,0,0,0,0,5.2905,5.2909,5.3099,5.31,5.3101,5.3177,5.3178,5.3179,5.3133,5.3131,5.3128,5.3125,5.3202,5.3207,5.3212,0,0,0,0,0,0,0,0,0,0,0,0,0,5.2987,5.291,5.3099,5.3087,5.3087,5.3177,5.3178,5.318,5.3134,5.3131,5.3127,5.3124,5.3201,5.3207,5.3213,5.3317,0,0,5.3232,5.3234,0,0,0,0,0,0,0,0,5.2982,5.2994,5.3088,5.3088,5.3088,5.3142,5.3138,5.3226,5.3135,5.3116,5.3126,5.3123,5.3186,5.3193,5.3215,5.3321,5.3324,5.3232,5.3236,5.3239,5.324,0,0,0,0,0,0,0,5.2976,5.299,5.313,5.309,5.309,5.3076,5.3084,5.3154,5.3168,5.3117,5.3114,5.3124,5.3185,5.3209,5.3216,5.3325,5.3232,5.3237,5.3241,5.3244,5.3516,5.3519,0,0,0,0,0,0,5.2972,5.2986,5.3127,5.3132,5.3026,5.3083,5.3092,5.3128,5.3168,5.317,5.3127,5.3122,5.32,5.3209,5.3219,5.334,5.3239,5.3244,5.3248,5.3512,5.3516,5.352,0,0,0,0,0,0,5.2968,5.2985,5.3124,5.3058,5.3075,5.309,5.3131,5.3131,5.3155,5.3175,5.3177,5.3149,5.3198,5.321,5.3292,5.3342,5.3247,5.3253,5.3508,5.3513,5.3518,5.3585,0,0,0,0,0,0,5.2963,5.2984,5.3026,5.306,5.3079,5.3198,5.3134,5.3135,5.3166,5.316,5.3196,5.3199,5.3196,5.3283,5.3298,5.3348,5.3258,5.3503,5.351,5.3517,5.3578,5.3592,5.3603,0,0,0,0,0,5.2956,5.3042,5.3028,5.3045,5.3131,5.3201,5.3212,5.3208,5.3171,5.3211,5.3223,5.3198,5.3335,5.3292,5.3309,5.3361,5.35,5.3508,5.3516,5.3573,5.3589,5.3603,0,0,0,0,0,0,5.3013,5.3046,5.3031,5.3131,5.3164,5.3193,5.3244,5.3226,5.327,5.3262,5.3254,5.3263,5.3347,5.3363,5.3315,5.3462,5.3411,5.3423,5.3448,5.3464,5.3477,5.347,5.3263,0,0,0,0,0,5.3038,5.3094,5.3119,5.3204,5.3221,5.323,5.3261,5.3254,5.3288,5.3301,5.3319,5.3351,5.3401,5.3434,5.3481,5.3581,5.3585,5.3625,5.3638,5.3648,5.3657,5.3706,5.3722,5.3546,5.3546,5.3546,0,0,5.3088,5.3113,5.3149,5.3216,5.3241,5.3296,5.3242,5.3304,5.3344,5.331,5.3388,5.3402,5.3437,5.3527,5.3568,5.3543,5.3707,5.3658,5.3666,5.367,5.3716,5.3732,5.3747,5.3552,5.3551,5.355,0,0,5.3208,5.3235,5.3306,5.3331,5.3369,5.3374,5.3391,5.3423,5.3431,5.3509,5.3483,5.353,5.3618,5.3642,5.3666,5.3791,5.3768,5.3807,5.3871,5.3919,5.3933,5.3945,5.3985,5.4001,5.3817,5.3817,5.3817,0,5.3266,5.335,5.3345,5.3408,5.3436,5.3408,5.3478,5.3503,5.3554,5.3573,5.3545,5.365,5.3673,5.3765,5.3795,5.3818,5.3834,5.3802,5.3932,5.3944,5.3955,5.3993,5.4009,5.3821,5.382,5.382,5.382,0,5.3416,5.3475,5.3528,5.3577,5.3611,5.3678,5.3681,5.3716,5.3706,5.3713,5.379,5.3816,5.3865,5.3887,5.3879,5.3978,5.3961,5.3933,5.3881,5.3976,5.4012,5.4027,5.3827,5.3825,5.3824,5.3823,0,0,5.3574,5.3618,5.3637,5.3657,5.3695,5.3739,5.3803,5.3851,5.388,5.3916,5.3966,5.4039,5.4012,5.4039,5.4033,5.4075,5.4167,5.4041,5.4041,5.406,5.4272,5.4291,5.4308,5.4153,5.4156,5.4158,5.4268,0,5.3693,5.3805,5.38,5.3904,5.3955,5.3927,5.3982,5.401,5.4018,5.4061,5.4069,5.4119,5.4082,5.4097,5.4138,5.4147,5.4209,5.414,5.4196,5.4198,5.4185,5.4328,5.4348,5.4451,5.4282,5.4285,5.4287,0,5.3847,5.3886,5.3994,5.402,5.4042,5.4091,5.4133,5.4176,5.4205,5.4208,5.4237,5.4223,5.4284,5.4232,5.4314,5.4267,5.429,5.4298,5.4302,5.4304,5.4246,5.433,5.4484,5.4497,5.4309,5.4308,5.4306,0,5.3945,5.4026,5.4099,5.4118,5.4152,5.4186,5.4202,5.4229,5.4257,5.4293,5.431,5.4354,5.4377,5.441,5.4406,5.437,5.4488,5.4438,5.4489,5.4489,5.4512,5.451,5.4668,5.4534,5.4534,5.4533,5.4533,0,5.4076,5.4142,5.4143,5.4188,5.426,5.4254,5.4325,5.4337,5.436,5.4405,5.4385,5.4427,5.4422,5.4464,5.4462,5.4527,5.4539,5.454,5.4538,5.454,5.4539,5.4552,5.4543,5.4537,5.4536,5.4536,5.4535,0,5.4197,5.4202,5.4279,5.4305,5.4312,5.4364,5.4384,5.4425,5.4431,5.4487,5.45,5.4508,5.4556,5.4557,5.4612,5.461,5.4689,5.4681,5.4679,5.4676,5.4725,5.4719,5.4894,5.4914,5.477,5.4772,5.4773,0,5.4279,5.4328,5.4358,5.4387,5.4404,5.4451,5.4479,5.4474,5.4504,5.4539,5.4575,5.4621,5.4657,5.4734,5.4743,5.4784,5.4774,5.4833,5.478,5.4779,5.477,5.4766,5.4768,5.4842,5.4844,5.4845,5.4846,0,5.4421,5.442,5.4461,5.4503,5.4536,5.4569,5.4599,5.4623,5.4621,5.4655,5.4703,5.4731,5.4786,5.483,5.4869,5.4883,5.4863,5.4863,5.4876,5.4877,5.4871,5.487,5.4702,5.4858,5.4857,5.4856,5.4856,5.4855,5.4522,5.4563,5.4589,5.4635,5.4657,5.4684,5.4723,5.4732,5.4773,5.4817,5.4812,5.4864,5.4889,5.4939,5.4956,5.4995,5.4975,5.4995,5.4999,5.5004,5.5007,5.4868,5.5003,5.5003,5.5002,5.5002,5.5002,0,5.4659,5.4674,5.4716,5.4758,5.4793,5.4773,5.4804,5.4833,5.488,5.4906,5.4941,5.4994,5.5036,5.5048,5.5088,5.5117,5.5109,5.5127,5.5123,5.5126,5.5025,5.5008,5.5133,5.5133,5.5133,5.5133,5.5133,5.5133,5.4734,5.4801,5.4803,5.4879,5.4893,5.4945,5.4963,5.4987,5.5007,5.5067,5.5102,5.511,5.5129,5.5169,5.5206,5.5208,5.5222,5.5243,5.5242,5.5147,5.5134,5.5121,5.5104,5.5248,5.5248,5.5338,5.5339,5.534]},{"header":{"parameterUnit":"m.s-1","parameterCategory":1,"la1":30.2991,"la2":30.254,"lo1":-89.0895,"lo2":-89.0444,"dy":0.0017,"dx":0.0017,"nx":28,"ny":28,"refTime":"2023-08-09T09:00:00:Z","depth":0,"parameterNumber":3,"parameterNumberName":"V-component_of_WINDS"},"data":[0,0,0,0,0,0,0,0,0,0,0,0,0,0,0,0,0,0,0,0,0,0,0,0,0,0,0,0,0,0,0,0,0,0,0,0,0,0,0,0,0,0,0,0,0,0,0,0,0,0,0,0,0,0,0,0,0,0,6.1254,6.1256,0,6.1424,6.1426,6.1427,6.1427,6.1425,6.1423,6.1421,6.1589,6.1595,6.1601,0,0,0,0,0,0,0,0,0,0,0,0,0,6.0922,6.0929,6.1254,6.1256,6.1258,6.1423,6.1426,6.1428,6.1428,6.1425,6.1423,6.142,6.1587,6.1594,6.1602,0,0,0,0,0,0,0,0,0,0,0,0,0,6.1076,6.0931,6.1254,6.1278,6.1282,6.1423,6.1426,6.1429,6.1428,6.1425,6.1422,6.1419,6.1584,6.1594,6.1603,6.1729,0,0,6.1633,6.1637,0,0,0,0,0,0,0,0,6.1068,6.1089,6.1272,6.1277,6.1281,6.1401,6.137,6.1529,6.1429,6.1373,6.1421,6.1417,6.1529,6.1543,6.1582,6.1737,6.1744,6.1634,6.164,6.1644,6.1647,0,0,0,0,0,0,0,6.1057,6.1081,6.1321,6.1275,6.1281,6.1278,6.1297,6.14,6.1467,6.1377,6.1378,6.1398,6.153,6.1572,6.1585,6.1746,6.1634,6.1642,6.1648,6.1652,6.201,6.2013,0,0,0,0,0,0,6.1042,6.1072,6.1315,6.1326,6.1165,6.1287,6.1307,6.1366,6.1466,6.1478,6.1401,6.1398,6.1557,6.1574,6.1591,6.1743,6.1644,6.1653,6.1659,6.2006,6.2011,6.2015,0,0,0,0,0,0,6.1035,6.1064,6.1309,6.1199,6.123,6.1296,6.1362,6.1371,6.1413,6.1484,6.1495,6.1432,6.1555,6.1578,6.1694,6.1749,6.1657,6.1666,6.2002,6.2008,6.2013,6.2049,0,0,0,0,0,0,6.1026,6.1062,6.1112,6.1201,6.1236,6.1411,6.1365,6.1377,6.143,6.1428,6.1516,6.1527,6.1554,6.168,6.1704,6.1761,6.1674,6.1997,6.2004,6.2011,6.2044,6.2055,6.2066,0,0,0,0,0,6.1014,6.1115,6.1115,6.1144,6.1301,6.1415,6.1435,6.1466,6.1435,6.1485,6.1529,6.1524,6.1739,6.1692,6.1719,6.178,6.1994,6.2002,6.201,6.2039,6.2053,6.2065,0,0,0,0,0,0,6.1029,6.1127,6.1128,6.1261,6.133,6.1414,6.1479,6.1481,6.1558,6.1552,6.1586,6.1606,6.1722,6.1762,6.1708,6.1905,6.1862,6.1877,6.1874,6.1889,6.19,6.1887,6.1682,0,0,0,0,0,6.1049,6.1135,6.1215,6.1324,6.1359,6.1413,6.1463,6.1481,6.1553,6.1582,6.1635,6.1703,6.1786,6.184,6.192,6.2049,6.2067,6.2104,6.2115,6.2124,6.2135,6.2204,6.2221,6.2042,6.2042,6.2041,0,0,6.1088,6.1152,6.1205,6.1329,6.1384,6.147,6.1437,6.153,6.1593,6.1595,6.1709,6.175,6.1828,6.1951,6.2008,6.1988,6.2189,6.2134,6.2141,6.2148,6.2214,6.2231,6.2246,6.2047,6.2046,6.2045,0,0,6.1205,6.1263,6.136,6.1416,6.1501,6.1536,6.1559,6.1643,6.1671,6.1786,6.1789,6.1863,6.2006,6.206,6.2107,6.2242,6.2238,6.2267,6.2324,6.2391,6.2405,6.2417,6.2464,6.248,6.2278,6.2278,6.2278,0,6.1244,6.1376,6.1409,6.1502,6.1555,6.1562,6.1659,6.1711,6.1816,6.1852,6.1829,6.2007,6.2059,6.2194,6.2227,6.2265,6.229,6.2257,6.24,6.2413,6.2426,6.247,6.2487,6.2281,6.228,6.228,6.228,0,6.1418,6.1509,6.1576,6.168,6.174,6.1835,6.188,6.1937,6.1949,6.1985,6.21,6.2164,6.2256,6.2289,6.2302,6.2425,6.241,6.2394,6.2351,6.2445,6.2487,6.2504,6.2285,6.2284,6.2283,6.2282,0,0,6.155,6.1669,6.1694,6.1739,6.1832,6.1902,6.1995,6.2087,6.2134,6.2206,6.2283,6.2403,6.2387,6.244,6.2458,6.2517,6.2617,6.2493,6.2495,6.2512,6.2754,6.2765,6.2785,6.2615,6.2619,6.2622,6.2747,0,6.1675,6.1844,6.1875,6.202,6.2103,6.2109,6.219,6.2254,6.229,6.2363,6.2402,6.2486,6.246,6.2491,6.255,6.2592,6.2666,6.2584,6.2685,6.2688,6.2665,6.2807,6.282,6.2935,6.2764,6.2767,6.2769,0,6.1845,6.1922,6.2076,6.2156,6.2191,6.2264,6.2349,6.242,6.2492,6.2513,6.2571,6.2583,6.2676,6.263,6.2758,6.2702,6.2745,6.2771,6.2777,6.2786,6.2734,6.2819,6.2973,6.299,6.2795,6.2793,6.2791,0,6.1923,6.2066,6.2176,6.2215,6.2311,6.2361,6.2403,6.2472,6.2524,6.2598,6.2632,6.2715,6.276,6.2822,6.2854,6.2818,6.2979,6.2936,6.2998,6.2997,6.3031,6.3028,6.3192,6.3061,6.306,6.306,6.306,0,6.206,6.2153,6.2212,6.228,6.2383,6.2417,6.2518,6.2559,6.2619,6.2692,6.2703,6.2771,6.281,6.2882,6.2908,6.3009,6.3029,6.3047,6.3053,6.3046,6.3044,6.3074,6.3066,6.3065,6.3064,6.3063,6.3062,0,6.2165,6.2209,6.2329,6.241,6.2432,6.2505,6.2573,6.2637,6.2673,6.2765,6.2789,6.2843,6.2929,6.2968,6.3074,6.3091,6.3205,6.3205,6.3182,6.3183,6.3242,6.3235,6.3431,6.3457,6.3309,6.331,6.3311,0,6.2249,6.2321,6.241,6.2461,6.2504,6.2586,6.2639,6.2674,6.2729,6.2815,6.2868,6.2955,6.3026,6.3163,6.321,6.3291,6.3292,6.3355,6.3304,6.3294,6.3291,6.3286,6.3292,6.3364,6.3365,6.3367,6.3368,0,6.2392,6.241,6.2488,6.2573,6.2637,6.2705,6.2771,6.2812,6.2856,6.2917,6.3006,6.3061,6.317,6.3255,6.3338,6.3378,6.338,6.3383,6.3401,6.3395,6.3378,6.3386,6.3206,6.3378,6.3377,6.3377,6.3376,6.3376,6.2488,6.2552,6.2624,6.2709,6.2763,6.2825,6.2889,6.2932,6.3008,6.31,6.3115,6.3209,6.3276,6.3388,6.3431,6.3504,6.3488,6.3515,6.3521,6.3527,6.353,6.3367,6.3519,6.3519,6.3518,6.3518,6.3518,0,6.263,6.2677,6.2755,6.2849,6.2915,6.2913,6.2986,6.3041,6.3124,6.3187,6.3258,6.3358,6.344,6.3494,6.3576,6.3624,6.3626,6.3644,6.364,6.3649,6.354,6.3516,6.364,6.364,6.364,6.364,6.364,6.364,6.2712,6.2819,6.2845,6.2977,6.3022,6.3116,6.3158,6.3213,6.3264,6.3377,6.3446,6.3481,6.3539,6.3626,6.37,6.3713,6.3742,6.3761,6.3773,6.367,6.3657,6.3645,6.3622,6.3767,6.3767,6.3876,6.3876,6.3877]}]]